Midwest Catholic Cross Country Championships 2018 vs Midwest Catholic Championships 2016

Aggregate Data Points
Difference This Meet That Meet
Overall Athletes -260 584 844
Overall Average -23.58 22:02.28 22:25.86
1st-10th Place -4.70 16:27.13 16:31.83
1st-25th Place -0.30 16:51.37 16:51.67
1st-50th Place +4.53 17:12.97 17:08.43
1st-100th Place +7.70 17:41.09 17:33.39
Common Athletes -- -- 126
Ran Faster 84 105 21
Ran Season Best 17 27 10
Average Time -1:08.59 20:51.50 22:00.08
Median Time -1:35.60 19:40.80 21:16.40
Middle 80% Times -1:11.40 20:27.38 21:38.79
Top 10% Times -51.82 17:05.05 17:56.87
Top 25% Times -1:02.80 17:42.19 18:44.99
Top 50% Times -1:08.30 18:25.17 19:33.47
Bottom 50% Times -1:08.87 23:17.82 24:26.70
Bottom 25% Times -45.28 25:36.88 26:22.17
Bottom 10% Times -58.00 28:07.74 29:05.74
Average Difference -1:08.59 -- --
Median Difference -2:01.30 -- --
Middle 80% Difference -1:12.81 -- --
Top 10% Difference -40.42 -- --
Top 50% Difference -1:02.12 -- --
Top 25% Difference -52.86 -- --
Top 50% Difference -1:02.12 -- --
Bottom 50% Difference -1:15.05 -- --
Bottom 25% Difference -58.16 -- --
Bottom 10% Difference -54.35 -- --

Performances of Common Athletes
Athlete Team Difference This Meet That Meet
Alex Phillip Akron SVSM -16.80 16:17.00 16:33.80
Ben Wimmers Elder -1:33.10 16:29.70 18:02.80
Will Tate Covington Catholic -1:14.70 16:46.20 18:00.90
Grant Arnold Carroll -48.50 16:48.30 17:36.80
Matthew Sollenberger Akron SVSM -21.20 16:49.40 17:10.60
Liam Seiple St. Johns Jesuit -1:39.80 16:57.30 18:37.10
David Reeb St. Xavier -44.70 17:02.20 17:46.90
Quentin Potempa Lima C.C. -3:16.90 17:23.60 20:40.50
Mark Schweinberg Elder -1:53.70 17:24.40 19:18.10
Casey Wolnitzek Covington Catholic -45.30 17:25.70 18:11.00
Connor Magness Elder -1:59.60 17:29.90 19:29.50
Roman Marra St. Johns Jesuit -1:24.90 17:33.90 18:58.80
Michael Kessans Covington Catholic -1:43.40 17:38.00 19:21.40
Nick Steel Akron SVSM -1:43.00 17:38.60 19:21.60
Shane Riley St. Johns Jesuit -1:12.40 17:38.90 18:51.30
Nicholas Eiben Moeller +28.50 18:16.20 17:47.70
Michael Osgood Carroll -1:54.70 17:50.50 19:45.20
Kevin Rybka Akron SVSM -31.30 17:56.20 18:27.50
Brooks Boschert Covington Catholic -2:32.20 17:58.60 20:30.80
Zach Merz Carroll +5.30 18:05.30 18:00.00
Andrew Sander Elder -11.40 18:01.50 18:12.90
Jack Dowling Elder -1:35.10 18:02.00 19:37.10
Vince Bley Elder -2:24.00 18:05.00 20:29.00
Andrew Connair Carroll -3:06.90 18:09.50 21:16.40
Aiden Smith Covington Catholic -46.40 18:11.00 18:57.40
Jacob Schulte Covington Catholic -1:17.70 18:17.80 19:35.50
Ben Jacobs Covington Catholic -49.00 18:19.80 19:08.80
Dylan Barnett Cle. VASJ -1:40.90 18:20.90 20:01.80
Jacob Wuebbolt Elder -41.00 18:22.00 19:03.00
Dk Kunkel Moeller -45.40 18:23.00 19:08.40
Tom Wegman Elder -5:03.80 18:23.40 23:27.20
Mikey Krebs Covington Catholic -45.60 18:24.20 19:09.80
Ryan Zilka Akron SVSM -55.00 18:28.00 19:23.00
Eli Darnell Elder -2:45.00 18:28.40 21:13.40
Justin Bley Elder -1:52.90 18:34.60 20:27.50
Ben Chartrand Fenwick -1:06.70 18:44.50 19:51.20
Colin Maxwell Carroll -25.60 18:46.60 19:12.20
Brennan Moll Akron SVSM -1:18.60 18:48.50 20:07.10
Alex Zlatic Bloomington Central Catholic High School +18.70 19:13.50 18:54.80
Alex Kent Covington Catholic -1:33.80 18:56.60 20:30.40
Mitchell Guest Pontiac Notre Dame Prep -27.80 18:57.10 19:24.90
Ben Flowers Covington Catholic -1:20.90 18:57.20 20:18.10
Jack Hein Covington Catholic -48.60 18:57.40 19:46.00
Ian Hale Moeller -2:31.00 19:00.50 21:31.50
Vincent Cafazo Covington Catholic -53.30 19:01.90 19:55.20
Michael Johnston Alter -1:03.10 19:04.60 20:07.70
Kyle Sokolis Elder -1:28.00 19:05.00 20:33.00
Chad Ostertag Elder -2:37.80 19:10.00 21:47.80
Alexandra Case Pontiac Notre Dame Prep -1:28.60 19:11.30 20:39.90
John Pappalardo Moeller -27.40 19:13.60 19:41.00
Jennifer Ohlsson Pontiac Notre Dame Prep -1:47.30 19:14.70 21:02.00
Ryan Zearley Fenwick -2:01.30 19:17.40 21:18.70
Will Speigle Moeller -4:39.80 19:19.70 23:59.50
Luke Wittman Carroll -1:27.70 19:26.10 20:53.80
Matthew Wood Pontiac Notre Dame Prep +1:03.00 20:29.50 19:26.50
Gabe Wainscott Covington Catholic -1:17.90 19:26.50 20:44.40
Emily Vining Tol. N. Dame Acad. -36.90 19:27.00 20:03.90
Montana Klayman Elder -9.40 19:30.80 19:40.20
Tommy Roebker Covington Catholic -1:07.80 19:31.40 20:39.20
Ethan Cepluch Moeller +18.50 19:50.20 19:31.70
Tommy Doerflein Elder -21.70 19:35.30 19:57.00
Zach Skufca Moeller -1:44.90 19:35.50 21:20.40
Joseph Balint Moeller -55.30 19:36.20 20:31.50
Eric Gaynor Pontiac Notre Dame Prep -2:24.00 19:37.20 22:01.20
Alex Finn Covington Catholic +15.70 19:53.60 19:37.90
Madeline Vining Tol. N. Dame Acad. -13.40 19:38.90 19:52.30
Davante Callahan Cle. VASJ -3:24.00 19:40.80 23:04.80
Alex Bingham Bloomington Central Catholic High School -2:22.60 19:42.80 22:05.40
Jacob Bingham Bloomington Central Catholic High School -2:14.10 19:50.60 22:04.70
Nicholas Momper Moeller -1:32.70 19:51.40 21:24.10
Joseph Weisgerber Moeller -59.50 19:53.90 20:53.40
Phillip Davis Cle. VASJ -2:57.80 19:55.90 22:53.70
Nina Zraik Akron SVSM -13.20 20:00.40 20:13.60
Natalie Tobin Akron SVSM -1:36.30 20:16.30 21:52.60
Abby Lewis Bloomington Central Catholic High School -24.80 20:36.70 21:01.50
Logan Lippert Fenwick -4:10.80 20:38.70 24:49.50
Hannah Tebbe Fenwick +37.40 21:19.90 20:42.50
Jack Beemsterboer Bloomington Central Catholic High School -33.40 20:42.60 21:16.00
Jackson Sinnard Elder -2:16.60 21:04.40 23:21.00
Ryan Saupe Elder -2:12.20 21:10.60 23:22.80
Madison Meixner Cham. Julienne -3:22.60 21:11.50 24:34.10
Meredith Meyer Mercy McAuley -14.00 21:13.70 21:27.70
Max Barcomb Moeller -3:26.80 21:14.70 24:41.50
Lani Hinton Mercy McAuley -2:04.20 21:17.60 23:21.80
James DeWall Carroll -46.70 21:25.10 22:11.80
Lizzie Schreyer Mercy McAuley -6.10 21:27.90 21:34.00
Olivia Meister Mercy McAuley -2:48.40 21:31.60 24:20.00
Shannon Lambrecht Pontiac Notre Dame Prep -1:37.60 21:39.10 23:16.70
Drew Laws Covington Catholic -44.50 21:42.50 22:27.00
Emma Gehret Alter -16.20 21:46.30 22:02.50
Andrew Glass Moeller -15.80 21:52.60 22:08.40
Cecilia Leopold Carroll -1:52.60 22:07.90 24:00.50
Jonathon Karr Pontiac Notre Dame Prep -2:34.20 22:12.90 24:47.10
Taylor Kincaid Mt. Notre Dame -2:07.80 22:20.80 24:28.60
Tanner Lapp Alter +58.60 23:20.30 22:21.70
Maddie Kohr Cham. Julienne +1:42.70 24:11.90 22:29.20
Gareth Fultz Fenwick -2:10.00 22:31.60 24:41.60
Reagan Root Tol. N. Dame Acad. -58.80 22:31.90 23:30.70
Kaitlyn Dappen Bloomington Central Catholic High School -2:06.80 22:41.60 24:48.40
Nathan Dressman Moeller -42.10 22:46.00 23:28.10
Jacob Short Fenwick -36.80 22:49.60 23:26.40
Ethan Bock Moeller +3.00 23:00.70 22:57.70
Grace Sunderman McAuley High School +28.10 23:34.70 23:06.60
Gena Porotsky Mercy McAuley -1:01.30 23:24.40 24:25.70
Nora Jackson Alter +3:55.70 27:25.60 23:29.90
Elizabeth Jasek Alter +1:03.70 24:44.70 23:41.00
Lauren Shoemaker Cham. Julienne +1:18.40 25:01.00 23:42.60
Sarah Hogan Cham. Julienne -2:38.50 23:58.40 26:36.90
Gretchen Waning Mt. Notre Dame +25.00 24:30.40 24:05.40
Jacob Galloway Pontiac Notre Dame Prep +1:41.50 25:49.80 24:08.30
Marta Rechtin Mercy McAuley -41.00 24:31.90 25:12.90
Evan Alexander Covington Catholic -1:03.50 24:37.10 25:40.60
Katie Bardine Cham. Julienne -18.50 24:53.90 25:12.40
Annie Bete Carroll +55.80 25:53.10 24:57.30
Jill Allaben McAuley High School +45.00 25:43.30 24:58.30
Lucy Schoen Alter -1:46.60 25:23.30 27:09.90
Hannah Franczyk Cle. VASJ -19.20 25:26.20 25:45.40
Alexandra Murray Cham. Julienne -53.30 25:44.40 26:37.70
Calvin Cusack Carroll -7:22.10 26:13.00 33:35.10
Ana Isaac Bloomington Central Catholic High School +2:45.30 29:38.90 26:53.60
Leah Bley Mercy McAuley -3:39.20 27:37.30 31:16.50
Annabelle Thomas Fenwick -2:31.60 28:36.60 31:08.20
Haley Kraft Cham. Julienne +1:40.60 30:38.00 28:57.40
Jayna Gilkey Mercy McAuley -1:32.70 29:24.00 30:56.70
Imani Wortham Cham. Julienne -41.30 30:23.20 31:04.50
Emma Howey Carroll +1.30 32:33.40 32:32.10